CW9558 Weather Reports


Display with metric or nautical units.
time (UTC)temp
F
wind
direction
speed
MPH
gust
MPH
rain 1hr
in
rain 24hr
in
rain mn
in
humidity
%
barometer
mb
20260507115335 40 16 0.0 0.0 0.00 0.00 0.00 83 1014.6
20260507114843 39 355 0.0 0.0 0.00 0.00 0.00 83 1014.6
20260507114333 39 355 0.0 0.0 0.00 0.00 0.00 83 1014.6
20260507113842 39 355 0.0 0.0 0.00 0.00 0.00 84 1014.6
20260507113332 39 355 0.0 0.0 0.00 0.00 0.00 83 1014.6
20260507112836 39 355 0.0 0.0 0.00 0.00 0.00 82 1014.6
20260507112328 39 355 0.0 0.0 0.00 0.00 0.00 82 1014.5
20260507111837 39 355 0.0 0.0 0.00 0.00 0.00 82 1014.4
20260507111330 39 355 0.0 0.0 0.00 0.00 0.00 82 1014.4
20260507110838 39 355 0.0 0.0 0.00 0.00 0.00 81 1014.4
20260507110351 39 355 0.0 0.0 0.00 0.00 0.00 81 1014.5
20260507105838 39 355 0.0 0.0 0.00 0.00 0.00 81 1014.4
20260507105351 39 355 0.0 0.0 0.00 0.00 0.00 81 1014.3
20260507104853 39 355 0.0 0.0 0.00 0.00 0.00 80 1014.3
20260507104338 39 355 0.0 0.0 0.00 0.00 0.00 80 1014.2
20260507103900 40 355 0.0 0.0 0.00 0.00 0.00 79 1014.2
20260507103352 40 355 0.0 0.0 0.00 0.00 0.00 79 1014.1
20260507102832 40 355 0.0 0.0 0.00 0.00 0.00 79 1014.2
20260507102347 40 355 0.0 0.0 0.00 0.00 0.00 78 1014.1
20260507101845 40 355 0.0 0.0 0.00 0.00 0.00 78 1014.2
20260507101336 40 355 0.0 0.0 0.00 0.00 0.00 78 1014.2
20260507100836 41 355 0.0 0.0 0.00 0.00 0.00 78 1014.2
20260507100348 41 355 0.0 0.0 0.00 0.00 0.00 77 1014.1
20260507095836 41 355 0.0 0.0 0.00 0.00 0.00 76 1014.3
20260507095338 41 355 0.0 0.0 0.00 0.00 0.00 75 1014.3
20260507094843 42 355 0.0 0.0 0.00 0.00 0.00 73 1014.2
20260507094334 42 355 0.0 3.0 0.00 0.00 0.00 72 1014.2
20260507093841 42 355 2.0 3.0 0.00 0.00 0.00 71 1014.2
20260507093330 42 355 2.0 6.0 0.00 0.00 0.00 69 1014.1
20260507092837 42 355 4.0 6.0 0.00 0.00 0.00 67 1014.1
20260507092329 42 355 3.0 5.0 0.00 0.00 0.00 67 1014.0
20260507091836 43 355 3.0 5.0 0.00 0.00 0.00 66 1014.1
20260507091347 43 355 3.0 5.0 0.00 0.00 0.00 65 1014.0
20260507090832 43 355 3.0 5.0 0.00 0.00 0.00 66 1014.0
20260507090336 43 355 3.0 5.0 0.00 0.00 0.00 66 1014.0
20260507085828 43 355 2.0 6.0 0.00 0.00 0.00 66 1013.9
20260507085340 43 355 3.0 4.0 0.00 0.00 0.00 66 1014.1
20260507084826 43 342 3.0 6.0 0.00 0.00 0.00 65 1014.1
20260507084358 43 329 4.0 6.0 0.00 0.00 0.00 66 1014.1
20260507083844 43 355 3.0 10.0 0.00 0.00 0.00 66 1014.0
20260507083334 43 355 4.0 10.0 0.00 0.00 0.00 65 1014.1
20260507082841 43 344 3.0 6.0 0.00 0.00 0.00 65 1014.0
20260507082334 43 337 4.0 8.0 0.00 0.00 0.00 65 1014.0
20260507081836 43 348 2.0 5.0 0.00 0.00 0.00 65 1014.1
20260507081329 43 346 2.0 6.0 0.00 0.00 0.00 65 1014.0
20260507080837 43 348 3.0 6.0 0.00 0.00 0.00 65 1014.0
20260507080349 43 339 2.0 6.0 0.00 0.00 0.00 66 1014.1
20260507075839 43 338 3.0 8.0 0.00 0.00 0.00 65 1014.0
20260507075330 44 329 4.0 8.0 0.00 0.00 0.00 65 1014.0
20260507074834 44 338 4.0 9.0 0.00 0.00 0.00 65 1014.0
20260507074407 44 332 4.0 9.0 0.00 0.00 0.00 65 1013.9
20260507073842 44 349 4.0 9.0 0.00 0.00 0.00 64 1013.9
20260507073409 44 342 4.0 10.0 0.00 0.00 0.00 65 1013.9
20260507072901 44 332 5.0 10.0 0.00 0.00 0.00 65 1014.0
20260507072330 44 327 4.0 8.0 0.00 0.00 0.00 65 1014.1
20260507071837 44 341 3.0 9.0 0.00 0.00 0.00 65 1014.0
20260507071347 44 331 5.0 9.0 0.00 0.00 0.00 65 1013.9
20260507070840 44 319 5.0 9.0 0.00 0.00 0.00 66 1014.0
20260507070350 44 345 2.0 5.0 0.00 0.00 0.00 66 1014.1
20260507065837 44 346 3.0 6.0 0.00 0.01 0.00 66 1014.1
20260507065329 44 344 3.0 5.0 0.00 0.01 0.00 66 1014.0
20260507064837 45 345 3.0 6.0 0.00 0.01 0.00 66 1014.1
20260507064347 45 345 2.0 5.0 0.00 0.01 0.00 65 1014.2
20260507063825 45 350 3.0 8.0 0.00 0.01 0.00 65 1014.1
20260507063333 45 347 4.0 8.0 0.00 0.01 0.00 65 1014.2
20260507062838 45 337 3.0 6.0 0.00 0.01 0.00 65 1014.3
20260507062330 45 338 4.0 10.0 0.00 0.01 0.00 65 1014.3
20260507061834 45 319 5.0 10.0 0.00 0.01 0.00 65 1014.3
20260507061327 46 326 3.0 9.0 0.00 0.01 0.00 64 1014.3
20260507060834 46 327 3.0 10.0 0.00 0.01 0.00 65 1014.4
20260507060336 46 333 4.0 10.0 0.00 0.01 0.00 65 1014.4
20260507055831 46 323 7.0 10.0 0.00 0.05 0.00 65 1014.2
20260507055403 46 360 4.0 9.0 0.00 0.05 0.00 65 1014.1
20260507054837 46 340 3.0 6.0 0.00 0.05 0.00 66 1014.2
20260507054349 46 336 3.0 10.0 0.00 0.05 0.00 67 1014.2
20260507053836 46 342 4.0 8.0 0.00 0.05 0.00 67 1014.2
20260507053346 45 326 3.0 6.0 0.00 0.05 0.00 68 1014.2
20260507052844 45 332 4.0 9.0 0.00 0.05 0.00 69 1014.2
20260507052350 45 341 3.0 6.0 0.00 0.05 0.00 70 1014.2
20260507051838 45 330 3.0 10.0 0.00 0.05 0.00 70 1014.1
20260507051348 45 331 5.0 10.0 0.00 0.05 0.00 70 1014.1
20260507050825 45 335 3.0 5.0 0.00 0.05 0.00 72 1014.2
20260507050356 45 335 3.0 5.0 0.00 0.05 0.00 72 1014.2
20260507045906 44 336 3.0 6.0 0.00 0.08 0.00 73 1014.1
20260507045351 44 334 3.0 6.0 0.00 0.08 0.00 74 1014.1
20260507044902 44 335 2.0 5.0 0.00 0.08 0.00 75 1014.0
20260507044351 44 336 0.0 0.0 0.00 0.08 0.00 76 1014.0
20260507043902 44 336 0.0 0.0 0.00 0.08 0.00 77 1014.0
20260507043332 44 336 0.0 0.0 0.00 0.08 0.00 77 1014.0
20260507042837 44 336 0.0 0.0 0.00 0.08 0.00 78 1014.0
20260507042328 44 336 0.0 0.0 0.00 0.08 0.00 78 1013.8
20260507041858 44 336 0.0 0.0 0.00 0.08 0.00 78 1013.9
20260507041348 44 336 0.0 0.0 0.00 0.08 0.00 76 1013.9
20260507040834 44 336 0.0 0.0 0.00 0.08 0.00 76 1014.0
20260507040325 44 336 0.0 0.0 0.00 0.08 0.00 77 1013.9
20260507035835 45 336 0.0 0.0 0.00 0.12 0.08 78 1014.0
20260507035326 45 336 0.0 0.0 0.00 0.12 0.08 78 1013.9
20260507034828 45 336 0.0 0.0 0.00 0.12 0.08 78 1013.9
20260507034412 45 336 0.0 0.0 0.00 0.12 0.08 77 1013.9
20260507033851 45 336 0.0 0.0 0.00 0.12 0.08 77 1013.9
20260507033334 45 336 0.0 0.0 0.00 0.12 0.08 77 1013.9
20260507032844 45 336 0.0 0.0 0.00 0.12 0.08 77 1013.8
20260507032349 45 336 0.0 0.0 0.00 0.12 0.08 76 1013.9
20260507031828 46 336 0.0 0.0 0.00 0.12 0.08 76 1013.9
20260507031338 46 336 0.0 0.0 0.00 0.12 0.08 76 1014.0
20260507030855 46 336 0.0 0.0 0.00 0.12 0.08 74 1013.9
20260507030346 46 336 0.0 0.0 0.00 0.12 0.08 75 1013.8
20260507025836 46 336 0.0 0.0 0.00 0.16 0.08 75 1013.7
20260507025329 46 336 0.0 0.0 0.00 0.16 0.08 75 1013.8
20260507024838 46 336 0.0 0.0 0.00 0.16 0.08 75 1013.9
20260507024351 47 336 0.0 2.0 0.00 0.16 0.08 74 1013.8
20260507023854 47 336 0.0 2.0 0.00 0.16 0.08 73 1013.7
20260507023347 47 336 1.0 2.0 0.00 0.16 0.08 72 1013.6
20260507022833 48 336 0.0 2.0 0.00 0.16 0.08 70 1013.6
20260507022346 48 336 1.0 1.0 0.00 0.16 0.08 70 1013.6
20260507021854 49 336 0.0 2.0 0.00 0.16 0.08 69 1013.6
20260507021347 49 336 0.0 2.0 0.00 0.16 0.08 69 1013.6
20260507020827 49 336 1.0 2.0 0.00 0.16 0.08 68 1013.5
20260507020401 49 336 1.0 2.0 0.00 0.16 0.08 67 1013.5
20260507015838 50 336 1.0 2.0 0.00 0.18 0.08 67 1013.5
20260507015331 50 336 1.0 2.0 0.00 0.18 0.08 66 1013.4
20260507014839 50 336 1.0 2.0 0.00 0.18 0.08 66 1013.5
20260507014353 50 336 1.0 4.0 0.00 0.18 0.08 66 1013.4
20260507013831 51 336 2.0 4.0 0.00 0.18 0.08 65 1013.5
20260507013346 51 336 1.0 4.0 0.00 0.18 0.08 65 1013.5
20260507012850 51 336 2.0 5.0 0.00 0.18 0.08 64 1013.5
20260507012408 51 336 2.0 5.0 0.00 0.18 0.08 64 1013.5
20260507011855 51 334 3.0 4.0 0.00 0.18 0.08 63 1013.4
20260507011327 52 335 2.0 4.0 0.00 0.18 0.08 63 1013.3
20260507010836 52 335 2.0 4.0 0.00 0.18 0.08 63 1013.1
20260507010328 52 335 2.0 4.0 0.00 0.18 0.08 62 1013.0
20260507005827 52 333 2.0 4.0 0.00 0.22 0.08 62 1013.2
20260507005335 52 333 2.0 4.0 0.00 0.22 0.08 61 1013.2
20260507004857 53 332 3.0 4.0 0.00 0.22 0.08 60 1012.9
20260507004330 53 329 2.0 5.0 0.00 0.22 0.08 61 1012.9
20260507003838 53 327 2.0 5.0 0.00 0.22 0.08 60 1012.8
20260507003352 53 327 2.0 5.0 0.00 0.22 0.08 60 1012.7
20260507002855 54 325 3.0 6.0 0.00 0.22 0.08 59 1012.7
20260507002326 54 319 3.0 8.0 0.00 0.22 0.08 58 1012.6
20260507001835 54 319 4.0 7.0 0.00 0.22 0.08 58 1012.6
20260507001343 54 325 3.0 5.0 0.00 0.22 0.08 58 1012.5
20260507000839 54 323 3.0 5.0 0.00 0.22 0.08 58 1012.4
20260507000350 54 320 3.0 5.0 0.00 0.22 0.08 58 1012.5
20260506235839 54 321 3.0 8.0 0.00 0.27 0.08 57 1012.5
20260506235349 54 317 4.0 8.0 0.00 0.27 0.08 56 1012.5
20260506234827 54 323 4.0 10.0 0.00 0.27 0.08 55 1012.5
20260506234334 54 327 5.0 10.0 0.00 0.27 0.08 54 1012.5
20260506233835 54 311 6.0 11.0 0.00 0.27 0.08 55 1012.6
20260506233346 55 315 6.0 11.0 0.00 0.27 0.08 55 1012.6
20260506232857 55 316 6.0 12.0 0.00 0.27 0.08 54 1012.6
20260506232327 55 327 5.0 13.0 0.00 0.27 0.08 54 1012.6
20260506231835 55 342 8.0 13.0 0.00 0.27 0.08 53 1012.7
20260506231345 55 323 5.0 12.0 0.00 0.27 0.08 55 1012.7
20260506230825 55 312 5.0 8.0 0.00 0.27 0.08 56 1012.7
20260506230333 55 333 5.0 10.0 0.00 0.27 0.08 54 1012.6
20260506225833 55 306 5.0 10.0 0.00 0.30 0.08 54 1012.6
20260506225326 55 337 4.0 6.0 0.00 0.30 0.08 54 1012.7
20260506224833 55 355 3.0 9.0 0.00 0.30 0.08 53 1012.6
20260506224325 55 330 4.0 14.0 0.00 0.30 0.08 52 1012.7
20260506223832 56 327 6.0 14.0 0.00 0.30 0.08 55 1012.7
20260506223345 56 302 5.0 11.0 0.00 0.30 0.08 55 1012.7
20260506222848 55 346 3.0 10.0 0.00 0.30 0.08 52 1012.6
20260506222340 55 344 4.0 10.0 0.00 0.30 0.08 56 1012.6
20260506221902 55 328 5.0 10.0 0.00 0.30 0.08 54 1012.6
20260506221333 55 275 5.0 8.0 0.00 0.30 0.08 55 1012.7
20260506220840 55 336 4.0 11.0 0.00 0.30 0.08 56 1012.6
20260506220332 55 313 4.0 11.0 0.00 0.30 0.08 54 1012.5
20260506215832 55 313 6.0 13.0 0.00 0.33 0.08 54 1012.5
20260506215326 56 311 8.0 13.0 0.00 0.33 0.08 54 1012.4
20260506214831 56 313 5.0 9.0 0.00 0.33 0.08 53 1012.4
20260506214324 55 327 4.0 9.0 0.00 0.33 0.08 55 1012.2
20260506213833 55 319 5.0 8.0 0.00 0.33 0.08 57 1012.2
20260506213346 55 333 4.0 9.0 0.00 0.33 0.08 58 1012.2
20260506212834 55 298 7.0 10.0 0.00 0.33 0.08 55 1012.2
20260506212327 55 330 6.0 10.0 0.00 0.33 0.08 56 1012.4
20260506211836 55 313 4.0 9.0 0.00 0.33 0.08 58 1012.2
20260506211350 55 347 5.0 10.0 0.00 0.33 0.08 57 1012.4
20260506210826 55 331 4.0 8.0 0.00 0.33 0.08 56 1012.3
20260506210338 55 327 3.0 8.0 0.00 0.33 0.08 55 1012.3
20260506205837 55 329 4.0 10.0 0.00 0.36 0.08 60 1012.4
20260506205330 55 304 4.0 14.0 0.00 0.36 0.08 57 1012.6
20260506204839 56 300 5.0 14.0 0.00 0.36 0.08 56 1012.4
20260506204352 56 293 4.0 11.0 0.00 0.36 0.08 61 1012.4
20260506203832 55 306 6.0 10.0 0.00 0.36 0.08 57 1012.5
20260506203345 55 309 6.0 11.0 0.00 0.36 0.08 57 1012.6
20260506202840 56 36 4.0 12.0 0.00 0.36 0.08 55 1012.6
20260506202333 55 292 7.0 12.0 0.00 0.36 0.08 57 1012.6
20260506201839 55 329 6.0 11.0 0.00 0.36 0.08 56 1012.6
20260506201332 55 325 7.0 10.0 0.00 0.36 0.08 57 1012.6
20260506200838 55 331 5.0 10.0 0.00 0.36 0.08 58 1012.5
20260506200331 55 311 4.0 9.0 0.00 0.36 0.08 58 1012.5
20260506195848 55 346 4.0 9.0 0.00 0.36 0.08 58 1012.6
20260506195335 55 305 5.0 9.0 0.00 0.36 0.08 58 1012.6
20260506194824 55 15 4.0 10.0 0.00 0.36 0.08 55 1012.7
20260506194409 55 320 5.0 10.0 0.00 0.36 0.08 56 1012.8
20260506193831 55 304 4.0 10.0 0.00 0.36 0.08 56 1012.9
20260506193334 55 311 6.0 10.0 0.00 0.36 0.08 57 1012.8
20260506192843 55 309 4.0 10.0 0.00 0.36 0.08 58 1012.7
20260506192334 55 293 6.0 10.0 0.00 0.36 0.08 57 1012.8
20260506191912 54 342 5.0 10.0 0.00 0.36 0.08 55 1012.8
20260506191407 54 335 5.0 9.0 0.00 0.36 0.08 57 1012.8
20260506190826 54 294 4.0 13.0 0.00 0.36 0.08 56 1012.7
20260506190336 55 268 6.0 13.0 0.00 0.36 0.08 57 1012.8
20260506185835 55 317 4.0 9.0 0.00 0.42 0.08 58 1012.8
20260506185349 55 295 5.0 9.0 0.00 0.42 0.08 57 1012.6
20260506184828 54 309 3.0 9.0 0.00 0.42 0.08 57 1012.7
20260506184334 54 316 3.0 6.0 0.00 0.42 0.08 58 1012.8
20260506183838 54 23 3.0 6.0 0.00 0.42 0.08 58 1012.8
20260506183329 54 47 2.0 9.0 0.00 0.42 0.08 59 1012.7
20260506182836 54 39 3.0 10.0 0.00 0.42 0.08 57 1012.8
20260506182348 54 327 6.0 10.0 0.00 0.42 0.08 55 1012.9
20260506181833 54 302 5.0 9.0 0.00 0.42 0.08 58 1012.8
20260506181346 54 324 3.0 6.0 0.00 0.42 0.08 61 1012.9
20260506180849 54 355 2.0 4.0 0.00 0.42 0.08 58 1012.9
20260506180408 53 355 0.0 2.0 0.00 0.42 0.08 56 1012.7
20260506175838 53 355 1.0 3.0 0.00 0.51 0.08 58 1012.7
20260506175351 53 355 2.0 4.0 0.00 0.51 0.08 59 1013.0
20260506174827 53 355 2.0 5.0 0.00 0.51 0.08 59 1013.2
20260506174336 53 355 2.0 5.0 0.00 0.51 0.08 58 1013.1
20260506173840 53 355 3.0 5.0 0.00 0.51 0.08 60 1012.9
20260506173333 53 345 3.0 5.0 0.00 0.51 0.08 58 1012.7
20260506172838 53 297 3.0 4.0 0.00 0.51 0.08 56 1012.7
20260506172331 53 296 2.0 5.0 0.00 0.51 0.08 58 1012.9
20260506171839 54 297 3.0 5.0 0.00 0.51 0.08 54 1012.8
20260506171352 53 296 3.0 5.0 0.00 0.51 0.08 60 1012.8
20260506170833 53 296 3.0 4.0 0.00 0.51 0.08 57 1012.9
20260506170346 53 308 2.0 4.0 0.00 0.51 0.08 56 1012.9
20260506165833 53 305 2.0 4.0 0.00 0.55 0.08 58 1012.8
20260506165347 54 304 2.0 5.0 0.00 0.55 0.08 57 1012.8
20260506164833 54 303 2.0 6.0 0.00 0.55 0.08 56 1012.7
20260506164326 54 302 1.0 6.0 0.00 0.55 0.08 60 1012.7
20260506163834 54 67 3.0 7.0 0.00 0.55 0.08 55 1012.8
20260506163347 54 94 3.0 7.0 0.00 0.55 0.08 61 1012.9
20260506162825 53 47 2.0 5.0 0.00 0.55 0.08 59 1012.9
20260506162331 53 46 3.0 5.0 0.00 0.55 0.08 62 1012.7
20260506161839 53 32 2.0 3.0 0.00 0.55 0.08 60 1012.7
20260506161352 53 32 2.0 3.0 0.00 0.55 0.08 61 1012.9
20260506160831 53 30 0.0 5.0 0.00 0.55 0.08 65 1012.9
20260506160337 53 28 3.0 5.0 0.00 0.55 0.08 63 1012.9
20260506155834 53 18 2.0 4.0 0.00 0.55 0.08 64 1012.8
20260506155347 53 355 1.0 3.0 0.00 0.55 0.08 63 1012.8
20260506154853 53 355 1.0 5.0 0.00 0.55 0.08 64 1012.8
20260506154347 53 355 3.0 5.0 0.00 0.55 0.08 59 1012.9
20260506153834 53 355 3.0 6.0 0.00 0.55 0.08 66 1012.8
20260506153328 52 74 3.0 5.0 0.00 0.55 0.08 59 1012.7
20260506152837 52 81 2.0 4.0 0.00 0.55 0.08 64 1012.6
20260506152349 52 81 2.0 4.0 0.00 0.55 0.08 58 1012.8
20260506151829 52 83 2.0 4.0 0.00 0.55 0.08 60 1012.9
20260506151337 52 84 2.0 6.0 0.00 0.55 0.08 63 1012.9
20260506150852 52 81 1.0 6.0 0.00 0.55 0.08 60 1012.9
20260506150335 52 26 2.0 8.0 0.00 0.55 0.08 62 1012.8
20260506145832 52 51 2.0 6.0 0.00 0.55 0.08 62 1012.8
20260506145326 53 79 3.0 5.0 0.00 0.55 0.08 69 1012.8
20260506144835 52 57 2.0 6.0 0.00 0.55 0.08 66 1012.8
20260506144348 52 89 1.0 6.0 0.00 0.55 0.08 64 1012.8
20260506143827 52 89 2.0 6.0 0.00 0.55 0.08 61 1012.4
20260506143336 52 94 3.0 6.0 0.00 0.55 0.08 66 1012.5
20260506142844 52 39 4.0 6.0 0.00 0.55 0.08 61 1012.6
20260506142332 53 49 1.0 5.0 0.00 0.55 0.08 70 1012.5
20260506141837 52 55 3.0 5.0 0.00 0.55 0.08 72 1012.4
20260506141328 52 55 3.0 5.0 0.00 0.55 0.08 66 1012.6
20260506140834 51 120 2.0 5.0 0.00 0.55 0.08 68 1012.4
20260506140347 51 132 2.0 7.0 0.00 0.55 0.08 67 1012.4
20260506135841 51 137 2.0 7.0 0.00 0.55 0.08 67 1012.3
20260506135351 51 122 1.0 7.0 0.00 0.55 0.08 76 1012.1
20260506134839 51 103 1.0 4.0 0.00 0.55 0.08 75 1012.1
20260506134349 50 103 1.0 4.0 0.00 0.55 0.08 75 1012.0
20260506133826 50 76 2.0 5.0 0.00 0.55 0.08 74 1012.0
20260506133334 49 70 3.0 5.0 0.00 0.55 0.08 74 1012.1
20260506132839 49 78 2.0 6.0 0.00 0.55 0.08 75 1012.0
20260506132330 49 65 2.0 6.0 0.00 0.55 0.08 77 1011.9
20260506131839 49 128 3.0 7.0 0.00 0.55 0.08 75 1011.8
20260506131330 49 96 2.0 6.0 0.00 0.55 0.08 79 1011.7
20260506130838 48 86 2.0 6.0 0.00 0.55 0.08 81 1011.7
20260506130330 48 74 0.0 4.0 0.00 0.55 0.08 83 1011.7
20260506125828 48 72 2.0 4.0 0.00 0.55 0.08 83 1011.7
20260506125358 48 77 0.0 3.0 0.00 0.55 0.08 88 1011.6
20260506124842 48 78 0.0 4.0 0.00 0.55 0.08 88 1011.6
20260506124332 48 76 1.0 4.0 0.00 0.55 0.08 91 1011.6
20260506123838 47 71 1.0 4.0 0.00 0.55 0.08 93 1011.6
20260506123330 46 69 1.0 4.0 0.00 0.55 0.08 95 1011.4
20260506122837 46 75 1.0 3.0 0.00 0.55 0.08 96 1011.1
20260506122349 46 46 0.0 5.0 0.00 0.55 0.08 96 1011.1
20260506121824 46 44 2.0 5.0 0.00 0.55 0.08 96 1011.0
20260506121337 46 38 1.0 4.0 0.00 0.55 0.08 96 1011.0
20260506120852 46 38 2.0 4.0 0.00 0.55 0.08 96 1011.0
20260506120336 45 30 0.0 0.0 0.00 0.55 0.08 96 1011.1
20260506115835 45 340 0.0 2.0 0.00 0.55 0.08 96 1011.0